User: anonymous   Login
Location: Morehead State University
(38.1872°N, 83.4339°W)
Time: 23:31:20
(UTC-05:00)
Language:

Okean 2 - Orbit

View from above orbital plane
View from above orbital plane
View from above satellite
View from above satellite

Ground track
Ground track

The orbit data is extracted from the following two-line orbital elements,

1 20510U 90018A   14352.92298583  .00003966  00000-0  34353-3 0  9149
2 20510 082.5159 325.5062 0013353 168.5534 247.1646 14.96827276345004
Epoch (UTC): 18 December 2014 22:09:05
Eccentricity: 0.0013353
inclination: 82.5159°
perigee height: 567 km
apogee height: 586 km
right ascension of ascending node: 325.5062°
argument of perigee: 168.5534°
revolutions per day: 14.96827276
mean anomaly at epoch: 247.1646°
orbit number at epoch: 34500

The dashed part of the orbit path shows where the satellite is in the earth's shadow,  

DLR